Date,TemperatureHighF,TemperatureAvgF,TemperatureLowF,DewpointHighF,DewpointAvgF,DewpointLowF,HumidityHigh,HumidityAvg,HumidityLow,PressureMaxIn,PressureMinIn,WindSpeedMaxMPH,WindSpeedAvgMPH,GustSpeedMaxMPH,PrecipitationSumIn
2014-2-1,44.8,37.3,33.3,42.8,36.2,33.8,98,94,77,29.94,29.85,4,0,5,0.00
2014-2-2,45.1,37.0,32.5,44.6,32.1,19.5,98,83,51,29.85,29.74,7,1,14,0.00
2014-2-3,38.8,33.7,30.6,20.0,15.8,11.8,58,48,40,29.97,29.80,14,5,22,0.00
2014-2-4,35.2,30.9,24.8,20.0,16.8,10.9,66,56,50,30.21,29.97,7,3,11,0.00
2014-2-5,34.5,23.9,15.8,12.6,6.9,-1.3,63,48,40,30.27,30.12,6,1,10,0.00
2014-2-6,29.5,22.5,15.3,11.3,5.8,-0.1,62,49,41,30.12,29.56,4,1,6,0.00
2014-2-7,37.9,27.3,20.5,20.9,15.5,11.1,77,61,47,29.71,29.56,8,2,11,0.00
2014-2-8,37.2,31.2,24.6,27.4,17.7,13.6,88,58,46,29.80,29.62,9,2,13,0.00
2014-2-9,38.7,33.4,29.8,35.6,31.9,27.3,98,94,86,29.85,29.71,5,0,8,0.00
2014-2-10,49.8,41.1,34.5,46.4,40.2,33.8,98,95,76,29.83,29.71,12,5,22,0.00
2014-2-11,48.9,42.4,34.5,46.4,41.3,33.8,98,95,79,29.88,29.29,10,3,16,0.00
2014-2-12,48.6,45.2,44.1,48.2,45.3,44.6,98,98,98,29.29,29.18,14,5,28,0.00
2014-2-13,58.1,47.8,42.8,35.6,33.6,29.0,77,60,41,29.80,29.50,7,3,10,0.00
2014-2-14,56.8,45.0,39.9,48.2,41.5,35.6,98,88,54,29.71,29.32,11,3,15,0.00
2014-2-15,46.6,40.8,36.3,46.4,39.7,35.6,98,95,75,29.68,28.94,14,2,22,0.00
2014-2-16,46.8,39.4,35.1,41.0,37.2,32.0,98,91,66,29.68,29.35,12,5,22,0.00
2014-2-17,54.0,41.5,35.6,42.8,39.2,33.8,98,91,55,29.68,29.44,10,3,19,0.00
2014-2-18,50.9,41.3,34.9,48.2,40.0,33.8,98,94,77,29.68,29.26,12,3,25,0.00
2014-2-19,50.2,38.4,32.0,42.8,35.5,32.0,98,90,63,29.85,29.59,10,2,18,0.00
2014-2-20,54.7,41.7,36.3,46.4,39.0,35.6,98,89,60,29.97,29.74,8,1,15,0.00
2014-2-21,44.1,37.3,33.3,39.2,36.0,33.8,98,94,72,30.06,29.94,4,0,6,0.00
2014-2-22,39.6,36.1,32.5,39.2,35.8,32.0,98,98,95,30.00,29.77,6,0,10,0.00
2014-2-23,38.5,36.7,34.7,39.2,36.8,35.6,98,98,98,29.83,29.71,4,0,6,0.00
2014-2-24,38.7,36.7,35.1,39.2,36.9,35.6,98,98,98,29.88,29.80,6,2,10,0.00
2014-2-25,52.7,39.7,34.7,42.8,37.6,33.8,98,91,61,29.91,29.77,6,1,10,0.00
2014-2-26,55.9,41.0,34.0,42.8,37.1,33.8,98,87,56,29.77,29.50,5,0,8,0.00
2014-2-27,50.9,43.1,37.0,42.8,40.0,35.6,98,89,64,29.53,29.41,5,0,8,0.00
2014-2-28,56.5,44.9,39.9,46.4,36.2,24.8,98,74,42,29.53,29.29,8,2,14,0.00